Date String (YYYY-MM-DD hh:mm:ss) UTC,Instrument flags,Ambient pressure (hPa),Sample flow (lpm),Bypass flow (lpm),Sample temperature (°C),Ambient temperature (°C),ASC tube jacket temperature (°C),LED temperature (°C),Box temperature (°C),Sample RH (%),Span deviation,Mass concentration (μg/m³),Mass concentration (μg/m³),Mass concentration (μg/m³)
DateTimeUTC,F1_M11,P_M11,Q1_M11,Q2_M11,T1_M11,T2_M11,T3_M11,T4_M11,T5_M11,U1_M11,ZSPAN_M11,X0_M11,X2_M11,X1_M11
2022-05-17 05:00:00,,0821.8,5.01,0.00,29.2,27.9,00.0,38.3,31.0,13.0,0000.0,0009.94,0003.93,0002.64
2022-05-17 05:01:00,,0821.8,5.00,0.00,29.2,28.0,00.0,38.3,31.0,13.0,0000.0,0009.99,0003.94,0002.66
2022-05-17 05:02:00,,0821.8,5.00,0.00,29.3,28.1,00.0,38.3,31.0,13.0,0000.0,0009.99,0003.98,0002.67
2022-05-17 05:03:00,,0822.1,5.00,0.00,29.3,28.1,00.0,38.3,31.1,13.2,0000.0,0009.79,0003.91,0002.67
2022-05-17 05:04:00,,0822.1,5.00,0.00,29.3,28.2,00.0,38.3,31.1,14.0,0000.0,0010.19,0003.87,0002.68
2022-05-17 05:05:00,,0822.1,5.00,0.00,29.3,28.3,00.0,38.3,31.2,14.4,0000.0,0010.63,0003.92,0002.69
2022-05-17 05:06:00,,0822.1,5.00,0.00,29.4,28.3,00.0,38.3,31.2,14.5,0000.0,0010.26,0003.99,0002.76
2022-05-17 05:07:00,,0822.1,4.99,0.00,29.4,28.3,00.0,38.4,31.2,14.4,0000.0,0010.21,0004.01,0002.80
2022-05-17 05:08:00,,0822.0,4.99,0.00,29.4,28.4,00.0,38.4,31.3,13.6,0000.0,0010.46,0004.02,0002.84
2022-05-17 05:09:00,,0821.9,5.00,0.00,29.4,28.4,00.0,38.4,31.3,13.3,0000.0,0010.44,0004.08,0002.86
2022-05-17 05:10:00,,0821.9,5.01,0.00,29.5,28.4,00.0,38.4,31.3,12.7,0000.0,0010.42,0004.12,0002.87
2022-05-17 05:11:00,,0821.9,5.00,0.00,29.5,28.4,00.0,38.4,31.3,12.6,0000.0,0010.75,0004.10,0002.86
2022-05-17 05:12:00,,0822.0,5.00,0.00,29.5,28.5,00.0,38.4,31.3,12.9,0000.0,0011.52,0004.09,0002.87
2022-05-17 05:13:00,,0822.0,5.00,0.00,29.5,28.5,00.0,38.4,31.4,13.3,0000.0,0011.45,0004.06,0002.86
2022-05-17 05:14:00,,0822.0,5.01,0.00,29.5,28.5,00.0,38.5,31.4,13.5,0000.0,0011.54,0004.09,0002.87
2022-05-17 05:15:00,,0822.0,5.01,0.00,29.6,28.5,00.0,38.5,31.4,13.6,0000.0,0010.98,0004.07,0002.86
2022-05-17 05:16:00,,0822.0,4.99,0.00,29.6,28.6,00.0,38.5,31.4,13.5,0000.0,0010.33,0003.99,0002.86
2022-05-17 05:17:00,,0822.0,5.00,0.00,29.6,28.6,00.0,38.5,31.4,13.5,0000.0,0010.38,0003.97,0002.83
2022-05-17 05:18:00,,0822.1,5.01,0.00,29.6,28.6,00.0,38.5,31.5,13.5,0000.0,0010.64,0003.98,0002.81
2022-05-17 05:19:00,,0822.1,5.00,0.00,29.6,28.6,00.0,38.6,31.5,13.7,0000.0,0010.15,0003.99,0002.81
2022-05-17 05:20:00,,0822.1,5.00,0.00,29.7,28.7,00.0,38.6,31.5,13.7,0000.0,0010.57,0003.96,0002.83
2022-05-17 05:21:00,,0822.1,5.01,0.00,29.7,28.7,00.0,38.6,31.5,13.7,0000.0,0010.36,0003.93,0002.84
2022-05-17 05:22:00,,0822.1,5.00,0.00,29.7,28.7,00.0,38.6,31.5,13.7,0000.0,0010.25,0003.98,0002.88
2022-05-17 05:23:00,,0822.1,5.00,0.00,29.7,28.7,00.0,38.6,31.6,13.5,0000.0,0009.55,0004.02,0002.91
2022-05-17 05:24:00,,0822.1,5.00,0.00,29.7,28.7,00.0,38.7,31.6,13.6,0000.0,0009.64,0004.08,0002.92
2022-05-17 05:25:00,,0822.1,4.99,0.00,29.8,28.8,00.0,38.7,31.6,13.7,0000.0,0010.23,0004.18,0002.93
2022-05-17 05:26:00,,0822.1,5.00,0.00,29.8,28.8,00.0,38.7,31.6,13.7,0000.0,0010.60,0004.26,0002.94
2022-05-17 05:27:00,,0822.1,5.01,0.00,29.8,28.8,00.0,38.7,31.7,13.6,0000.0,0010.82,0004.31,0002.96
2022-05-17 05:28:00,,0822.1,4.99,0.00,29.8,28.7,00.0,38.7,31.6,13.5,0000.0,0010.90,0004.31,0002.96
2022-05-17 05:29:00,,0822.1,5.01,0.00,29.8,26.6,00.0,38.7,31.3,13.6,0000.0,0010.50,0004.28,0002.97
2022-05-17 05:30:00,,0822.1,4.99,0.00,29.6,25.2,00.0,38.7,31.0,13.5,0000.0,0010.53,0004.30,0002.98
2022-05-17 05:31:00,,0822.1,5.01,0.00,29.5,25.4,00.0,38.6,30.8,13.7,0000.0,0010.61,0004.35,0002.98
2022-05-17 05:32:00,,0822.1,5.00,0.00,29.4,25.7,00.0,38.6,30.8,13.9,0000.0,0010.46,0004.41,0002.97
2022-05-17 05:33:00,,0822.1,5.00,0.00,29.3,26.2,00.0,38.5,30.9,13.8,0000.0,0010.38,0004.37,0002.94
2022-05-17 05:34:00,,0822.1,5.00,0.00,29.3,26.6,00.0,38.5,31.0,13.8,0000.0,0010.11,0004.30,0002.89
2022-05-17 05:35:00,,0822.1,5.01,0.00,29.3,26.9,00.0,38.5,31.0,13.8,0000.0,0009.91,0004.24,0002.87
2022-05-17 05:36:00,,0822.1,5.00,0.00,29.3,27.2,00.0,38.5,31.0,13.8,0000.0,0009.86,0004.21,0002.86
2022-05-17 05:37:00,,0822.1,5.01,0.00,29.3,27.4,00.0,38.5,31.1,13.7,0000.0,0009.95,0004.16,0002.86
2022-05-17 05:38:00,,0822.2,5.01,0.00,29.3,27.6,00.0,38.5,31.1,13.8,0000.0,0010.17,0004.12,0002.84
2022-05-17 05:39:00,,0822.1,4.99,0.00,29.4,27.7,00.0,38.4,31.1,13.7,0000.0,0009.98,0004.07,0002.82
2022-05-17 05:40:00,,0822.1,5.00,0.00,29.4,27.9,00.0,38.5,31.2,13.7,0000.0,0009.85,0004.02,0002.81
2022-05-17 05:41:00,,0822.2,4.99,0.00,29.4,28.0,00.0,38.5,31.2,13.6,0000.0,0010.16,0004.00,0002.79
2022-05-17 05:42:00,,0822.1,5.00,0.00,29.4,28.0,00.0,38.5,31.2,13.6,0000.0,0009.86,0003.94,0002.78
2022-05-17 05:43:00,,0822.1,5.00,0.00,29.4,28.1,00.0,38.5,31.2,13.4,0000.0,0009.85,0003.88,0002.78
2022-05-17 05:44:00,,0822.1,5.00,0.00,29.4,28.2,00.0,38.5,31.2,13.3,0000.0,0010.02,0003.92,0002.78
2022-05-17 05:45:00,,0822.1,5.00,0.00,29.4,28.2,00.0,38.5,31.2,13.2,0000.0,0010.37,0003.91,0002.80
2022-05-17 05:46:00,,0822.1,5.00,0.00,29.5,28.3,00.0,38.5,31.3,13.1,0000.0,0010.91,0003.91,0002.80
2022-05-17 05:47:00,,0822.1,5.00,0.00,29.5,28.3,00.0,38.5,31.3,13.1,0000.0,0010.82,0003.89,0002.80
2022-05-17 05:48:00,,0822.1,5.01,0.00,29.5,28.3,00.0,38.5,31.3,13.1,0000.0,0010.44,0003.81,0002.78
2022-05-17 05:49:00,,0822.1,5.01,0.00,29.5,28.3,00.0,38.5,31.3,13.2,0000.0,0010.00,0003.79,0002.76
2022-05-17 05:50:00,,0822.2,5.00,0.00,29.5,28.4,00.0,38.5,31.3,13.3,0000.0,0009.89,0003.76,0002.75
2022-05-17 05:51:00,,0822.2,4.99,0.00,29.5,28.4,00.0,38.5,31.3,13.3,0000.0,0009.81,0003.76,0002.74
2022-05-17 05:52:00,,0822.2,4.99,0.00,29.5,28.4,00.0,38.5,31.3,13.4,0000.0,0009.45,0003.77,0002.72
2022-05-17 05:53:00,,0822.2,5.01,0.00,29.6,28.4,00.0,38.5,31.4,13.6,0000.0,0009.79,0003.78,0002.72
2022-05-17 05:54:00,,0822.2,5.01,0.00,29.6,28.4,00.0,38.6,31.4,13.8,0000.0,0010.26,0003.77,0002.71
2022-05-17 05:55:00,,0822.2,5.01,0.00,29.6,28.5,00.0,38.6,31.4,13.8,0000.0,0010.76,0003.74,0002.73
2022-05-17 05:56:00,,0822.2,5.00,0.00,29.6,28.5,00.0,38.6,31.4,13.8,0000.0,0010.67,0003.74,0002.73
2022-05-17 05:57:00,,0822.2,5.00,0.00,29.6,28.5,00.0,38.6,31.4,13.6,0000.0,0010.14,0003.76,0002.74
2022-05-17 05:58:00,,0822.2,4.99,0.00,29.6,28.5,00.0,38.6,31.4,13.4,0000.0,0010.12,0003.74,0002.73
2022-05-17 05:59:00,,0822.2,4.99,0.00,29.6,28.5,00.0,38.6,31.4,13.2,0000.0,0010.00,0003.76,0002.75
